Weather History for Howell, MI

Change the Weather History Date:

Monday, April 23, 2012

  Actual Average Record
Temperature  
Mean Temperature 45 °F -  
Max Temperature 55 °F 59 °F 80 °F (2001)
Min Temperature 35 °F 38 °F 28 °F (2003)
Degree Days  
Heating Degree Days 20    
Moisture  
Dew Point 16 °F    
Average Humidity 34    
Maximum Humidity 57    
Minimum Humidity 15    
Precipitation  
Precipitation 0.00 in - - ()
Sea Level Pressure  
Sea Level Pressure 29.77 in    
Wind  
Wind Speed 11 mph (NNW)    
Max Wind Speed 23 mph    
Max Gust Speed 34 mph    
Visibility 10 miles    
Events      
Averages and records for this station are not official NWS values.
T = Trace of Precipitation, MM = Missing Value Source: NWS Daily Summary

Daily Weather History Graph

Daily Weather History Graph

Search for Another Location

Airport:

Trip Planner

Search our weather history database for the weather conditions in past years. The results will help you decide how hot, cold, wet, or windy it might be!

Date:

Astronomy

Apr. 23, 2012 Rise Set
Actual Time 6:41 AM EDT 8:27 PM EDT
Civil Twilight 6:11 AM EDT 8:57 PM EDT
Nautical Twilight 5:34 AM EDT 9:34 PM EDT
Astronomical Twilight 4:55 AM EDT 10:14 PM EDT
Moon 7:48 AM EDT (4/23) 11:00 PM EDT (4/23)
Length of Visible Light 14h 46m
Length of Day
13h 46m
Waxing Crescent, 5% of the Moon is Illuminated
Apr 23
Waxing Crescent
Apr 29
First Quarter
May 5
Full
May 12
Last Quarter
May 20
New

Hourly Weather History & Observations

Time (EDT) Temp. Windchill Dew Point Humidity Pressure Visibility Wind Dir Wind Speed Gust Speed Precip Events Conditions
12:14 AM 38.3 °F 33.9 °F 21.0 °F 50% 29.95 in 10.0 mi North 5.8 mph - N/A   Clear
12:34 AM 38.5 °F 33.4 °F 20.8 °F 49% 29.95 in 10.0 mi North 6.9 mph - N/A   Clear
12:54 AM 39.2 °F 34.2 °F 21.2 °F 49% 29.94 in 10.0 mi North 6.9 mph - N/A   Clear
1:14 AM 39.0 °F 34.8 °F 22.1 °F 51% 29.93 in 10.0 mi North 5.8 mph - N/A   Clear
1:35 AM 39.2 °F 35.0 °F 22.6 °F 52% 29.93 in 10.0 mi NNW 5.8 mph - N/A   Clear
1:54 AM 39.2 °F 34.2 °F 23.0 °F 52% 29.92 in 10.0 mi North 6.9 mph - N/A   Clear
2:14 AM 39.2 °F 34.2 °F 23.7 °F 54% 29.92 in 10.0 mi NNW 6.9 mph - N/A   Clear
2:35 AM 38.7 °F 32.9 °F 24.6 °F 57% 29.91 in 10.0 mi NNW 8.1 mph - N/A   Clear
2:54 AM 38.5 °F 32.7 °F 23.9 °F 56% 29.90 in 10.0 mi NNW 8.1 mph - N/A   Clear
3:14 AM 38.3 °F 33.2 °F 22.8 °F 54% 29.90 in 10.0 mi NNW 6.9 mph - N/A   Clear
3:34 AM 37.8 °F 31.8 °F 21.6 °F 52% 29.89 in 10.0 mi NNW 8.1 mph - N/A   Clear
3:54 AM 37.6 °F 31.6 °F 20.7 °F 51% 29.89 in 10.0 mi NNW 8.1 mph - N/A   Clear
4:14 AM 37.4 °F 30.8 °F 20.7 °F 51% 29.88 in 10.0 mi NNW 9.2 mph - N/A   Clear
4:35 AM 36.9 °F 29.6 °F 21.2 °F 53% 29.88 in 10.0 mi NNW 10.4 mph - N/A   Clear
4:54 AM 36.5 °F 29.2 °F 21.4 °F 54% 29.88 in 10.0 mi NNW 10.4 mph - N/A   Clear
5:15 AM 36.1 °F 29.3 °F 21.7 °F 56% 29.87 in 10.0 mi NNW 9.2 mph - N/A   Clear
5:34 AM 36.0 °F 28.5 °F 21.6 °F 56% 29.87 in 10.0 mi NNW 10.4 mph - N/A   Clear
5:54 AM 35.6 °F 28.6 °F 21.7 °F 57% 29.86 in 10.0 mi NNW 9.2 mph - N/A   Clear
6:15 AM 35.6 °F 28.6 °F 21.6 °F 57% 29.86 in 10.0 mi NNW 9.2 mph - N/A   Clear
6:34 AM 35.6 °F 27.5 °F 21.6 °F 57% 29.86 in 10.0 mi NNW 11.5 mph 17.3 mph N/A   Clear
6:54 AM 35.6 °F 28.0 °F 21.6 °F 57% 29.86 in 10.0 mi NNW 10.4 mph - N/A   Clear
7:15 AM 35.8 °F 27.3 °F 21.2 °F 55% 29.86 in 10.0 mi NNW 12.7 mph - N/A   Clear
7:34 AM 36.5 °F 29.7 °F 21.2 °F 54% 29.86 in 10.0 mi NNW 9.2 mph - N/A   Clear
7:54 AM 37.8 °F 30.7 °F 21.4 °F 52% 29.86 in 10.0 mi NNW 10.4 mph - N/A   Clear
8:14 AM 39.2 °F 32.0 °F 20.8 °F 48% 29.85 in 10.0 mi North 11.5 mph 17.3 mph N/A   Clear
8:34 AM 40.3 °F 32.6 °F 20.7 °F 46% 29.85 in 10.0 mi NNW 13.8 mph 18.4 mph N/A   Clear
8:54 AM 41.9 °F 35.0 °F 20.3 °F 42% 29.84 in 10.0 mi NNW 12.7 mph 19.6 mph N/A   Clear
9:14 AM 43.0 °F 35.7 °F 19.9 °F 40% 29.83 in 10.0 mi NNW 15.0 mph 19.6 mph N/A   Clear
9:34 AM 44.4 °F 38.2 °F 18.5 °F 35% 29.83 in 10.0 mi NNW 12.7 mph 18.4 mph N/A   Clear
9:55 AM 45.3 °F 41.1 °F 17.1 °F 32% 29.82 in 10.0 mi North 8.1 mph 25.3 mph N/A   Clear
10:14 AM 46.4 °F 39.2 °F 15.1 °F 28% 29.82 in 10.0 mi NNW 18.4 mph 25.3 mph N/A   Clear
10:34 AM 47.5 °F - 15.8 °F 28% 29.81 in 10.0 mi NNW 11.5 mph 29.9 mph N/A   Clear
10:55 AM 48.2 °F - 14.0 °F 25% 29.80 in 10.0 mi NNW 16.1 mph 29.9 mph N/A   Clear
11:14 AM 48.7 °F - 10.8 °F 22% 29.80 in 10.0 mi North 11.5 mph 29.9 mph N/A   Clear
11:34 AM 49.1 °F - 8.8 °F 20% 29.79 in 10.0 mi North 18.4 mph 29.9 mph N/A   Clear
11:54 AM 50.2 °F - 9.5 °F 19% 29.78 in 10.0 mi North 18.4 mph 27.6 mph N/A   Clear
12:14 PM 50.7 °F - 10.8 °F 20% 29.78 in 10.0 mi North 17.3 mph 29.9 mph N/A   Clear
12:35 PM 50.2 °F - 9.5 °F 19% 29.77 in 10.0 mi North 16.1 mph 27.6 mph N/A   Clear
12:54 PM 51.8 °F - 13.3 °F 22% 29.76 in 10.0 mi North 15.0 mph 21.9 mph N/A   Clear
1:14 PM 52.2 °F - 13.3 °F 21% 29.75 in 10.0 mi North 13.8 mph 27.6 mph N/A   Clear
1:34 PM 52.0 °F - 11.7 °F 20% 29.74 in 10.0 mi NNW 18.4 mph 25.3 mph N/A   Clear
1:54 PM 52.9 °F - 9.9 °F 18% 29.73 in 10.0 mi NNW 19.6 mph 33.4 mph N/A   Clear
2:14 PM 53.4 °F - 12.0 °F 19% 29.72 in 10.0 mi NNW 20.7 mph 33.4 mph N/A   Clear
2:34 PM 53.8 °F - 12.0 °F 19% 29.71 in 10.0 mi NW 15.0 mph 34.5 mph N/A   Clear
2:54 PM 53.8 °F - 10.0 °F 17% 29.71 in 10.0 mi North 19.6 mph 32.2 mph N/A   Clear
3:14 PM 54.5 °F - 7.9 °F 15% 29.70 in 10.0 mi NNW 20.7 mph 29.9 mph N/A   Clear
3:34 PM 55.6 °F - 12.0 °F 18% 29.69 in 10.0 mi NNW 16.1 mph 26.5 mph N/A   Clear
3:54 PM 55.6 °F - 13.8 °F 19% 29.68 in 10.0 mi WNW 19.6 mph 26.5 mph N/A   Clear
4:15 PM 55.6 °F - 12.6 °F 18% 29.67 in 10.0 mi North 16.1 mph 28.8 mph N/A   Clear
4:34 PM 55.9 °F - 12.0 °F 18% 29.66 in 10.0 mi NNW 16.1 mph 31.1 mph N/A   Clear
4:55 PM 55.8 °F - 11.5 °F 17% 29.66 in 10.0 mi NNW 12.7 mph 28.8 mph N/A   Clear
5:14 PM 55.9 °F - 12.6 °F 18% 29.65 in 10.0 mi NW 15.0 mph 27.6 mph N/A   Clear
5:34 PM 55.6 °F - 9.7 °F 16% 29.65 in 10.0 mi NNW 18.4 mph 25.3 mph N/A   Clear
5:55 PM 55.2 °F - 16.0 °F 21% 29.65 in 10.0 mi WNW 21.9 mph 29.9 mph N/A   Clear
6:14 PM 54.1 °F - 16.3 °F 23% 29.65 in 10.0 mi NW 19.6 mph 33.4 mph N/A   Clear
6:34 PM 53.1 °F - 14.2 °F 21% 29.65 in 10.0 mi NW 19.6 mph 33.4 mph N/A   Clear
6:54 PM 52.7 °F - 14.0 °F 22% 29.65 in 10.0 mi NW 23.0 mph 33.4 mph N/A   Clear
7:14 PM 52.0 °F - 13.3 °F 21% 29.65 in 10.0 mi NW 20.7 mph 29.9 mph N/A   Clear
7:34 PM 51.3 °F - 11.3 °F 20% 29.65 in 10.0 mi NW 17.3 mph 28.8 mph N/A   Clear
7:55 PM 50.5 °F - 10.9 °F 20% 29.65 in 10.0 mi NW 19.6 mph 28.8 mph N/A   Clear
8:14 PM 50.0 °F - 9.5 °F 20% 29.65 in 10.0 mi NW 15.0 mph 27.6 mph N/A   Clear
8:35 PM 48.7 °F - 9.3 °F 20% 29.65 in 10.0 mi NW 13.8 mph - N/A   Clear
8:54 PM 48.2 °F - 9.5 °F 21% 29.65 in 10.0 mi NW 13.8 mph 27.6 mph N/A   Clear
9:14 PM 47.3 °F - 9.7 °F 22% 29.65 in 10.0 mi NW 18.4 mph 26.5 mph N/A   Clear
9:34 PM 46.6 °F - 10.9 °F 24% 29.65 in 10.0 mi NW 12.7 mph 23.0 mph N/A   Clear
9:54 PM 45.7 °F 39.8 °F 12.4 °F 26% 29.65 in 10.0 mi NW 12.7 mph 21.9 mph N/A   Clear
10:14 PM 45.3 °F 38.4 °F 13.1 °F 27% 29.65 in 10.0 mi NW 16.1 mph 26.5 mph N/A   Clear
10:34 PM 44.6 °F 37.8 °F 13.8 °F 29% 29.64 in 10.0 mi NW 15.0 mph 24.2 mph N/A   Clear
10:55 PM 44.1 °F 37.7 °F 14.2 °F 30% 29.64 in 10.0 mi NW 12.7 mph 21.9 mph N/A   Clear
11:14 PM 43.5 °F 37.5 °F 14.9 °F 32% 29.63 in 10.0 mi NW 11.5 mph 23.0 mph N/A   Clear
11:34 PM 43.0 °F 36.4 °F 14.9 °F 32% 29.63 in 10.0 mi NW 12.7 mph - N/A   Clear
11:55 PM 42.8 °F 36.2 °F 15.3 °F 33% 29.62 in 10.0 mi NW 12.7 mph 18.4 mph N/A   Clear